Home > Weather > Germering > Past weeks

Flag for Germany Weather for the Past 2 Weeks in Germering, Bavaria, Germany

Now
41 °F

Passing clouds.


Feels Like: 38 °F
Forecast: 32 / 51 °F
Wind: 5 mph from South

Location: Landsberg

Current Time: Feb 7, 2016 at 12:34:48 AM

Latest Report: Feb 6, 2016 at 11:20 PM


Visibility: N/A

Pressure: 29.80 "Hg (27.89 "Hg at 538m altitude)

Humidity: 57%

Dew point: 27 °F

Location of GermeringLocation

Historic Weather in Germering — Graph

°F

Germering Temperature Yesterday

Maximum temperature yesterday: 57 °F (at 3:20 PM)
Minimum temperature yesterday: 30 °F (at 2:20 AM)
Average temperature yesterday: 41 °F

High & Low Weather Summary for the Past Weeks

 TemperatureHumidityPressure
High57 °F (Jan 26, 3:20 PM)100% (Jan 23, 2:20 AM)30.63 "Hg (Jan 23, 2:20 AM)
Low16 °F (Jan 22, 11:20 PM)44% (Jan 25, 2:20 PM)29.80 "Hg (Feb 6, 11:20 PM)
Average41 °F78%30.24 "Hg
* Reported Jan 22 11:20 PM — Feb 6 11:20 PM, Germering, Weather by CustomWeather, © 2016

Note: Actual official high and low records may vary slightly from our data, if they occured in-between our weather recording intervals... More about our weather records

Advertising

Germering Weather History for the Previous 24 Hours

 ConditionsComfort  
Time TempWeatherWind HumidityBarometerVisibility
11:20 PM
Sat, Feb 6
41 °FPassing clouds.5 mph57%29.80 "HgN/A
10:20 PM41 °FPassing clouds.9 mph61%29.83 "HgN/A
9:20 PM41 °FPassing clouds.7 mph61%29.86 "HgN/A
8:20 PM43 °FPassing clouds.6 mph61%29.86 "HgN/A
7:20 PM45 °FPassing clouds.5 mph61%29.89 "HgN/A
6:20 PM46 °FPassing clouds.5 mph66%29.92 "HgN/A
5:20 PM50 °FBroken clouds.3 mph50%29.95 "HgN/A
4:20 PM55 °FBroken clouds.1 mph47%29.98 "HgN/A
3:20 PM57 °FBroken clouds.3 mph44%30.01 "HgN/A
2:20 PM55 °FPartly sunny.3 mph59%30.01 "HgN/A
1:20 PM54 °FPartly sunny.3 mph58%30.07 "HgN/A
12:20 PM50 °FPartly sunny.2 mph62%30.09 "HgN/A
11:20 AM46 °FPartly sunny.2 mph62%30.12 "HgN/A
10:20 AM41 °FPartly sunny.2 mph70%30.12 "HgN/A
9:20 AM36 °FPartly sunny.8 mph81%30.12 "HgN/A
8:20 AM32 °FPartly sunny.2 mph87%30.12 "HgN/A
7:20 AM30 °FPassing clouds.2 mph93%30.12 "HgN/A
6:20 AM32 °FPassing clouds.2 mph87%30.12 "HgN/A
5:20 AM34 °FChilly.3 mph87%30.15 "HgN/A
4:20 AM30 °FChilly.5 mph93%30.15 "HgN/A
3:20 AM30 °FChilly.6 mph100%30.18 "HgN/A
2:20 AM30 °FPassing clouds.3 mph100%30.18 "HgN/A
1:20 AM32 °FPassing clouds.1 mph93%30.18 "HgN/A
12:20 AM34 °FPassing clouds.6 mph93%30.21 "HgN/A
Weather by CustomWeather, © 2016

See weather overviewHow to use our weather pages